Terug naar catalogus

STARLINK-36872

ActiefCommunicatieVLEO
NORAD 67955·PAYLOAD·🇺🇸 United States

Gelanceerd Feb 24, 2026 vanaf Vandenberg Space Force Base

Loading…

Volgende Passages (komende 24 uur)

TLE

VersSource: CelesTrak SupGP

Epoch: Sep 15, 2026, 03:39 UTC

1 67955C 26037Z   26258.15256944 -.00050672  00000+0 -18356-2 0  2583
2 67955  42.9997 200.7278 0001288 274.4626 191.0396 15.27598938    17

Volg STARLINK-36872 in realtime met AllMySat

Download on the App Store